Weather History for Pampa, TX

Change the Weather History Date:

Saturday, May 12, 2012

  Actual Average Record
Temperature  
Mean Temperature 53 °F -  
Max Temperature 64 °F 77 °F 94 °F (1970)
Min Temperature 42 °F 50 °F 38 °F (1966)
Degree Days  
Heating Degree Days 12    
Growing Degree Days 3 (Base 50)    
Moisture  
Dew Point 44 °F    
Average Humidity 69    
Maximum Humidity 100    
Minimum Humidity 45    
Precipitation  
Precipitation 0.00 in - - ()
Sea Level Pressure  
Sea Level Pressure 30.27 in    
Wind  
Wind Speed 4 mph (NNE)    
Max Wind Speed 15 mph    
Max Gust Speed 21 mph    
Visibility 10 miles    
Events      
Averages and records for this station are not official NWS values.
T = Trace of Precipitation, MM = Missing Value Source: NWS Daily Summary

Daily Weather History Graph

Daily Weather History Graph

Search for Another Location

Airport:

Trip Planner

Search our weather history database for the weather conditions in past years. The results will help you decide how hot, cold, wet, or windy it might be!

Date:

Astronomy

May. 12, 2012 Rise Set
Actual Time 6:41 AM CDT 8:40 PM CDT
Civil Twilight 6:12 AM CDT 9:08 PM CDT
Nautical Twilight 5:38 AM CDT 9:42 PM CDT
Astronomical Twilight 5:02 AM CDT 10:19 PM CDT
Moon 1:59 AM CDT (5/12) 1:17 PM CDT (5/12)
Length of Visible Light 14h 55m
Length of Day
13h 59m
Waning Gibbous, 52% of the Moon is Illuminated
May 12
Waning Gibbous
May 12
Last Quarter
May 20
New
May 28
First Quarter
Jun 4
Full

Hourly Weather History & Observations

Time (CDT) Temp. Windchill Dew Point Humidity Pressure Visibility Wind Dir Wind Speed Gust Speed Precip Events Conditions
12:15 AM 46.4 °F - 42.8 °F 87% 30.21 in 10.0 mi Calm Calm - N/A   Clear
12:35 AM 46.4 °F - 42.8 °F 87% 30.21 in 10.0 mi Calm Calm - N/A   Clear
12:55 AM 46.4 °F - 42.8 °F 87% 30.21 in 10.0 mi Calm Calm - N/A   Clear
1:15 AM 46.4 °F - 42.8 °F 87% 30.21 in 10.0 mi Calm Calm - N/A   Clear
1:35 AM 46.4 °F - 42.8 °F 87% 30.21 in 10.0 mi Calm Calm - N/A   Clear
1:55 AM 44.6 °F - 42.8 °F 93% 30.21 in 10.0 mi Calm Calm - N/A   Clear
2:15 AM 46.4 °F - 42.8 °F 87% 30.21 in 10.0 mi Calm Calm - N/A   Clear
2:35 AM 44.6 °F - 42.8 °F 93% 30.21 in 10.0 mi Calm Calm - N/A   Clear
2:55 AM 44.6 °F 40.2 °F 41.0 °F 87% 30.21 in 10.0 mi North 8.1 mph - N/A   Clear
3:15 AM 44.6 °F 40.2 °F 42.8 °F 93% 30.21 in 10.0 mi North 8.1 mph - N/A   Clear
3:35 AM 44.6 °F 40.7 °F 42.8 °F 93% 30.22 in 10.0 mi North 6.9 mph - N/A   Clear
3:55 AM 44.6 °F - 42.8 °F 93% 30.22 in 10.0 mi Calm Calm - N/A   Clear
4:15 AM 44.6 °F - 42.8 °F 93% 30.23 in 10.0 mi Calm Calm - N/A   Clear
4:35 AM 42.8 °F - 41.0 °F 93% 30.23 in 10.0 mi Calm Calm - N/A   Clear
4:55 AM 42.8 °F - 42.8 °F 100% 30.24 in 10.0 mi Calm Calm - N/A   Clear
5:15 AM 44.6 °F - 41.0 °F 87% 30.24 in 10.0 mi Calm Calm - N/A   Clear
5:35 AM 42.8 °F - 41.0 °F 93% 30.24 in 10.0 mi Calm Calm - N/A   Clear
5:55 AM 44.6 °F - 42.8 °F 93% 30.24 in 10.0 mi Calm Calm - N/A   Clear
6:15 AM 44.6 °F - 41.0 °F 87% 30.25 in 10.0 mi Calm Calm - N/A   Clear
6:35 AM 42.8 °F - 41.0 °F 93% 30.25 in 10.0 mi Calm Calm - N/A   Clear
6:55 AM 44.6 °F - 41.0 °F 87% 30.26 in 10.0 mi Calm Calm - N/A   Clear
7:15 AM 42.8 °F - 41.0 °F 93% 30.27 in 10.0 mi Calm Calm - N/A   Clear
7:35 AM 44.6 °F - 42.8 °F 93% 30.28 in 7.0 mi Calm Calm - N/A   Clear
7:55 AM 46.4 °F - 44.6 °F 93% 30.29 in 10.0 mi Calm Calm - N/A   Clear
8:15 AM 50.0 °F - 46.4 °F 87% 30.29 in 10.0 mi NNE 6.9 mph - N/A   Clear
8:35 AM 51.8 °F - 46.4 °F 82% 30.29 in 10.0 mi NE 9.2 mph - N/A   Clear
8:55 AM 53.6 °F - 48.2 °F 82% 30.30 in 10.0 mi NE 11.5 mph - N/A   Clear
9:15 AM 55.4 °F - 48.2 °F 77% 30.30 in 10.0 mi NE 11.5 mph - N/A   Clear
9:35 AM 55.4 °F - 48.2 °F 77% 30.30 in 10.0 mi NE 10.4 mph - N/A   Scattered Clouds
9:55 AM 55.4 °F - 50.0 °F 82% 30.30 in 10.0 mi NE 12.7 mph - N/A   Mostly Cloudy
10:15 AM 57.2 °F - 50.0 °F 77% 30.30 in 10.0 mi NE 12.7 mph 17.3 mph N/A   Mostly Cloudy
10:35 AM 59.0 °F - 50.0 °F 72% 30.31 in 10.0 mi NE 12.7 mph 16.1 mph N/A   Mostly Cloudy
10:55 AM 59.0 °F - 48.2 °F 67% 30.31 in 10.0 mi NNE 9.2 mph - N/A   Mostly Cloudy
11:15 AM 59.0 °F - 48.2 °F 67% 30.31 in 10.0 mi NE 12.7 mph - N/A   Mostly Cloudy
11:35 AM 60.8 °F - 46.4 °F 59% 30.32 in 10.0 mi NNE 6.9 mph - N/A   Mostly Cloudy
11:55 AM 62.6 °F - 46.4 °F 55% 30.32 in 10.0 mi NE 9.2 mph - N/A   Mostly Cloudy
12:15 PM 62.6 °F - 44.6 °F 52% 30.32 in 10.0 mi NE 8.1 mph - N/A   Scattered Clouds
12:35 PM 62.6 °F - 44.6 °F 52% 30.32 in 10.0 mi Calm Calm - N/A   Mostly Cloudy
12:55 PM 62.6 °F - 42.8 °F 48% 30.31 in 10.0 mi NNE 11.5 mph 16.1 mph N/A   Mostly Cloudy
1:15 PM 64.4 °F - 42.8 °F 45% 30.30 in 10.0 mi ENE 9.2 mph - N/A   Mostly Cloudy
1:35 PM 64.4 °F - 42.8 °F 45% 30.30 in 10.0 mi Calm Calm - N/A   Mostly Cloudy
1:55 PM 64.4 °F - 42.8 °F 45% 30.30 in 10.0 mi Calm Calm - N/A   Mostly Cloudy
2:15 PM 64.4 °F - 42.8 °F 45% 30.30 in 10.0 mi NNE 4.6 mph - N/A   Overcast
2:35 PM 64.4 °F - 42.8 °F 45% 30.30 in 10.0 mi Calm Calm - N/A   Overcast
2:55 PM 64.4 °F - 42.8 °F 45% 30.29 in 10.0 mi NNE 4.6 mph - N/A   Overcast
3:15 PM 64.4 °F - 42.8 °F 45% 30.29 in 10.0 mi Calm Calm - N/A   Overcast
3:35 PM 62.6 °F - 42.8 °F 48% 30.29 in 10.0 mi NNE 4.6 mph - N/A   Overcast
3:55 PM 62.6 °F - 42.8 °F 48% 30.28 in 10.0 mi NNW 15.0 mph 18.4 mph N/A   Overcast
4:15 PM 64.4 °F - 42.8 °F 45% 30.27 in 10.0 mi North 11.5 mph 17.3 mph N/A   Mostly Cloudy
4:35 PM 64.4 °F - 42.8 °F 45% 30.27 in 10.0 mi North 15.0 mph 19.6 mph N/A   Mostly Cloudy
4:55 PM 62.6 °F - 42.8 °F 48% 30.27 in 10.0 mi North 13.8 mph 17.3 mph N/A   Overcast
5:15 PM 62.6 °F - 42.8 °F 48% 30.27 in 10.0 mi North 11.5 mph 16.1 mph N/A   Overcast
5:35 PM 62.6 °F - 42.8 °F 48% 30.27 in 10.0 mi North 12.7 mph 19.6 mph N/A   Overcast
5:55 PM 64.4 °F - 42.8 °F 45% 30.26 in 10.0 mi NNE 13.8 mph 20.7 mph N/A   Scattered Clouds
6:15 PM 64.4 °F - 42.8 °F 45% 30.26 in 10.0 mi North 13.8 mph 20.7 mph N/A   Clear
6:35 PM 64.4 °F - 42.8 °F 45% 30.26 in 10.0 mi NNE 8.1 mph - N/A   Clear
6:55 PM 64.4 °F - 42.8 °F 45% 30.25 in 10.0 mi North 10.4 mph 16.1 mph N/A   Scattered Clouds
7:15 PM 62.6 °F - 42.8 °F 48% 30.25 in 10.0 mi NNE 9.2 mph - N/A   Mostly Cloudy
7:35 PM 62.6 °F - 42.8 °F 48% 30.25 in 10.0 mi North 12.7 mph 18.4 mph N/A   Mostly Cloudy
7:55 PM 59.0 °F - 42.8 °F 55% 30.26 in 10.0 mi North 11.5 mph - N/A   Scattered Clouds
8:15 PM 57.2 °F - 42.8 °F 59% 30.27 in 10.0 mi North 9.2 mph - N/A   Clear
8:35 PM 55.4 °F - 42.8 °F 63% 30.28 in 10.0 mi North 5.8 mph - N/A   Scattered Clouds
8:55 PM 55.4 °F - 42.8 °F 63% 30.28 in 10.0 mi North 4.6 mph - N/A   Scattered Clouds
9:15 PM 53.6 °F - 42.8 °F 67% 30.29 in 10.0 mi Calm Calm - N/A   Scattered Clouds
9:35 PM 55.4 °F - 42.8 °F 63% 30.29 in 10.0 mi Calm Calm - N/A   Mostly Cloudy
9:55 PM 55.4 °F - 42.8 °F 63% 30.30 in 10.0 mi Calm Calm - N/A   Overcast
10:15 PM 55.4 °F - 42.8 °F 63% 30.32 in 10.0 mi Calm Calm - N/A   Mostly Cloudy
10:35 PM 51.8 °F - 42.8 °F 71% 30.32 in 10.0 mi Calm Calm - N/A   Scattered Clouds
10:55 PM 51.8 °F - 42.8 °F 71% 30.32 in 10.0 mi Calm Calm - N/A   Clear
11:15 PM 51.8 °F - 42.8 °F 71% 30.32 in 10.0 mi Calm Calm - N/A   Scattered Clouds
11:35 PM 51.8 °F - 42.8 °F 71% 30.32 in 10.0 mi Calm Calm - N/A   Mostly Cloudy
11:55 PM 51.8 °F - 42.8 °F 71% 30.32 in 10.0 mi Calm Calm - N/A   Overcast